Date String (YYYY-MM-DD hh:mm:ss) UTC,Instrument flags,Ambient pressure (hPa),Sample flow (lpm),Bypass flow (lpm),Sample temperature (°C),Ambient temperature (°C),ASC tube jacket temperature (°C),LED temperature (°C),Box temperature (°C),Sample RH (%),Span deviation,Mass concentration (μg/m³),Mass concentration (μg/m³),Mass concentration (μg/m³)
DateTimeUTC,F1_M11,P_M11,Q1_M11,Q2_M11,T1_M11,T2_M11,T3_M11,T4_M11,T5_M11,U1_M11,ZSPAN_M11,X0_M11,X2_M11,X1_M11
2021-10-11 17:00:00,,0820.6,5.00,0.00,30.0,29.2,00.0,39.0,31.9,12.7,0000.0,0009.88,0003.91,0003.18
2021-10-11 17:01:00,,0820.6,4.99,0.00,30.0,29.2,00.0,39.0,31.9,12.6,0000.0,0010.35,0003.97,0003.21
2021-10-11 17:02:00,,0820.6,5.00,0.00,30.0,29.3,00.0,39.1,31.9,12.5,0000.0,0010.29,0004.03,0003.25
2021-10-11 17:03:00,,0820.6,4.99,0.00,30.1,29.3,00.0,39.1,31.9,12.4,0000.0,0010.28,0004.08,0003.30
2021-10-11 17:04:00,,0820.6,5.00,0.00,30.1,29.3,00.0,39.1,31.9,12.5,0000.0,0011.10,0004.09,0003.32
2021-10-11 17:05:00,,0820.6,5.00,0.00,30.1,29.3,00.0,39.1,31.9,12.7,0000.0,0011.42,0004.08,0003.34
2021-10-11 17:06:00,,0820.6,5.02,0.00,30.1,29.3,00.0,39.1,31.9,12.6,0000.0,0011.45,0004.07,0003.37
2021-10-11 17:07:00,,0820.6,5.00,0.00,30.1,29.3,00.0,39.1,31.9,12.6,0000.0,0011.87,0004.07,0003.39
2021-10-11 17:08:00,,0820.6,5.00,0.00,30.1,29.3,00.0,39.1,31.9,12.5,0000.0,0011.60,0004.07,0003.40
2021-10-11 17:09:00,,0820.6,5.02,0.00,30.1,29.3,00.0,39.2,31.9,12.5,0000.0,0011.58,0004.06,0003.42
2021-10-11 17:10:00,,0820.6,4.99,0.00,30.1,29.3,00.0,39.2,31.9,12.2,0000.0,0011.54,0004.10,0003.43
2021-10-11 17:11:00,,0820.6,5.01,0.00,30.1,29.4,00.0,39.2,32.0,12.3,0000.0,0011.06,0004.11,0003.42
2021-10-11 17:12:00,,0820.6,4.99,0.00,30.2,29.4,00.0,39.2,32.0,12.5,0000.0,0010.85,0004.08,0003.42
2021-10-11 17:13:00,,0820.6,4.99,0.00,30.2,29.4,00.0,39.2,32.0,12.4,0000.0,0010.67,0004.03,0003.39
2021-10-11 17:14:00,,0820.6,5.00,0.00,30.2,29.4,00.0,39.2,32.0,12.4,0000.0,0010.64,0004.01,0003.38
2021-10-11 17:15:00,,0820.5,4.99,0.00,30.2,29.4,00.0,39.2,32.0,12.3,0000.0,0009.77,0004.01,0003.39
2021-10-11 17:16:00,,0820.5,5.01,0.00,30.2,29.4,00.0,39.3,32.0,12.4,0000.0,0009.96,0004.04,0003.39
2021-10-11 17:17:00,,0820.5,5.00,0.00,30.2,29.5,00.0,39.3,32.0,12.5,0000.0,0009.83,0004.04,0003.39
2021-10-11 17:18:00,,0820.5,5.00,0.00,30.2,29.4,00.0,39.3,32.0,12.6,0000.0,0009.77,0004.02,0003.39
2021-10-11 17:19:00,,0820.4,5.00,0.00,30.2,29.4,00.0,39.3,32.1,12.6,0000.0,0010.33,0004.04,0003.40
2021-10-11 17:20:00,,0820.5,4.99,0.00,30.3,29.5,00.0,39.3,32.1,12.5,0000.0,0010.02,0004.05,0003.42
2021-10-11 17:21:00,,0820.5,5.01,0.00,30.3,29.5,00.0,39.3,32.1,12.6,0000.0,0009.86,0004.03,0003.42
2021-10-11 17:22:00,,0820.4,5.00,0.00,30.3,29.5,00.0,39.4,32.1,12.6,0000.0,0011.07,0004.08,0003.44
2021-10-11 17:23:00,,0820.3,5.01,0.00,30.3,29.5,00.0,39.4,32.1,12.6,0000.0,0012.02,0004.15,0003.46
2021-10-11 17:24:00,,0820.3,5.00,0.00,30.3,29.5,00.0,39.4,32.1,12.6,0000.0,0012.45,0004.19,0003.49
2021-10-11 17:25:00,,0820.3,5.00,0.00,30.3,29.5,00.0,39.4,32.1,12.7,0000.0,0012.89,0004.25,0003.50
2021-10-11 17:26:00,,0820.3,4.99,0.00,30.3,29.5,00.0,39.4,32.1,12.7,0000.0,0013.37,0004.27,0003.51
2021-10-11 17:27:00,,0820.3,5.02,0.00,30.3,29.5,00.0,39.4,32.1,12.5,0000.0,0013.43,0004.28,0003.52
2021-10-11 17:28:00,,0820.2,4.98,0.00,30.4,29.5,00.0,39.4,32.1,12.6,0000.0,0013.50,0004.30,0003.55
2021-10-11 17:29:00,,0820.2,5.00,0.00,30.4,29.6,00.0,39.4,32.2,12.5,0000.0,0013.75,0004.41,0003.57
2021-10-11 17:30:00,,0820.3,5.00,0.00,30.4,29.6,00.0,39.4,32.2,12.3,0000.0,0014.03,0004.50,0003.57
2021-10-11 17:31:00,,0820.2,5.00,0.00,30.4,29.6,00.0,39.4,32.2,12.4,0000.0,0014.78,0004.48,0003.57
2021-10-11 17:32:00,,0820.2,4.99,0.00,30.4,29.6,00.0,39.5,32.2,12.5,0000.0,0015.14,0004.49,0003.58
2021-10-11 17:33:00,,0820.1,4.99,0.00,30.4,29.6,00.0,39.5,32.2,12.8,0000.0,0014.13,0004.53,0003.60
2021-10-11 17:34:00,,0820.2,5.01,0.00,30.4,29.6,00.0,39.5,32.2,12.9,0000.0,0013.27,0004.54,0003.61
2021-10-11 17:35:00,,0820.2,4.99,0.00,30.4,29.6,00.0,39.5,32.2,12.5,0000.0,0013.50,0004.55,0003.59
2021-10-11 17:36:00,,0820.2,5.01,0.00,30.5,29.7,00.0,39.5,32.2,12.0,0000.0,0013.19,0004.48,0003.58
2021-10-11 17:37:00,,0820.2,5.00,0.00,30.5,29.6,00.0,39.5,32.3,11.8,0000.0,0012.90,0004.42,0003.55
2021-10-11 17:38:00,,0820.2,5.01,0.00,30.5,29.6,00.0,39.5,32.2,11.7,0000.0,0012.38,0004.36,0003.53
2021-10-11 17:39:00,,0820.1,4.99,0.00,30.5,29.6,00.0,39.5,32.2,11.7,0000.0,0012.09,0004.33,0003.49
2021-10-11 17:40:00,,0820.0,5.00,0.00,30.5,29.6,00.0,39.6,32.2,11.8,0000.0,0011.62,0004.20,0003.46
2021-10-11 17:41:00,,0820.0,5.00,0.00,30.4,29.6,00.0,39.6,32.2,12.1,0000.0,0011.91,0004.09,0003.43
2021-10-11 17:42:00,,0820.0,5.01,0.00,30.4,29.6,00.0,39.6,32.2,11.9,0000.0,0011.93,0004.07,0003.41
2021-10-11 17:43:00,,0819.9,5.00,0.00,30.4,29.6,00.0,39.6,32.2,11.8,0000.0,0011.86,0004.00,0003.38
2021-10-11 17:44:00,,0819.9,5.00,0.00,30.4,29.6,00.0,39.6,32.1,12.0,0000.0,0011.76,0003.88,0003.34
2021-10-11 17:45:00,,0819.9,5.00,0.00,30.4,29.5,00.0,39.6,32.1,11.9,0000.0,0012.01,0003.80,0003.30
2021-10-11 17:46:00,,0819.9,5.01,0.00,30.4,29.5,00.0,39.6,32.1,11.8,0000.0,0011.29,0003.72,0003.29
2021-10-11 17:47:00,,0819.9,5.00,0.00,30.4,29.5,00.0,39.5,32.1,11.6,0000.0,0011.20,0003.72,0003.28
2021-10-11 17:48:00,,0819.9,4.99,0.00,30.4,29.5,00.0,39.5,32.1,12.0,0000.0,0010.86,0003.71,0003.28
2021-10-11 17:49:00,,0819.9,5.01,0.00,30.4,29.5,00.0,39.5,32.1,12.1,0000.0,0010.64,0003.70,0003.28
2021-10-11 17:50:00,,0819.9,5.00,0.00,30.4,29.5,00.0,39.5,32.0,12.0,0000.0,0010.70,0003.70,0003.29
2021-10-11 17:51:00,,0820.0,5.00,0.00,30.4,29.5,00.0,39.5,32.1,11.9,0000.0,0010.61,0003.72,0003.29
2021-10-11 17:52:00,,0819.9,5.00,0.00,30.4,29.5,00.0,39.5,32.1,12.1,0000.0,0009.53,0003.71,0003.29
2021-10-11 17:53:00,,0819.9,5.00,0.00,30.4,29.5,00.0,39.5,32.0,12.1,0000.0,0008.70,0003.69,0003.29
2021-10-11 17:54:00,,0819.9,5.00,0.00,30.4,29.5,00.0,39.5,32.1,12.1,0000.0,0008.34,0003.70,0003.28
2021-10-11 17:55:00,,0819.9,5.00,0.00,30.4,29.5,00.0,39.5,32.0,12.0,0000.0,0008.05,0003.69,0003.29
2021-10-11 17:56:00,,0819.8,4.99,0.00,30.3,29.4,00.0,39.5,32.0,11.8,0000.0,0007.44,0003.69,0003.30
2021-10-11 17:57:00,,0819.9,5.00,0.00,30.3,29.4,00.0,39.5,32.0,11.8,0000.0,0007.49,0003.70,0003.31
2021-10-11 17:58:00,,0819.8,4.99,0.00,30.3,29.4,00.0,39.5,32.0,11.8,0000.0,0007.45,0003.71,0003.31
2021-10-11 17:59:00,,0819.9,4.99,0.00,30.3,29.4,00.0,39.5,32.0,12.0,0000.0,0007.62,0003.77,0003.34
